Find Starlink 36926

NORAD ID: 67999 Int'l Des: 2026-039 Owner: SPXS Country: US Constellation: starlink operational
LEOCIRCULAR

リアルタイム位置

3D地球を読み込み中...

Starlink 36926について

説明を読み込み中...

次回通過

Passes for default location (London). Set your location on the main map for personalized predictions.

高度履歴

Loading altitude history...

軌道要素

1 67999U 26039P 26105.60446252 .00016139 00000-0 59487-3 0 9999
2 67999 42.9998 200.0555 0001582 269.7655 90.3015 15.27570609 7351
Epoch: Apr 15, 2026 • Age: 18 hours

現在のステータス

高度 482.4 km
速度 7.63 km/s
衛星直下点 8.97°N, 34.19°E
打ち上げ日 Feb 27, 2026
運用期間 0.1 years
タイプ internet

技術仕様

分類 Payload
質量 575.00 kg
乾燥質量 530.00 kg
総質量 575.00 kg
長さ 0.30 m
直径 4.10 m
スパン 29.00 m
形状 Box + pan
製造者 SPXS
バスタイプ Starlink V2MO
フェーズステータス In Orbit
所有者/国 SPXS/US

Most Searched